CCM37CE LFMN-LFKJ

Flight info

Callsign CCM37CE
Flight time 0h 35m
Altitude 19000
Route LONSU
Aircraft AT76/M-SDFGIRY/S

Departure

Time 2026-05-01 13:07
Airport Nice-Côte d'Azur Airport (LFMN)

Arrival

Time 2026-05-01 13:42
Airport Ajaccio Napoléon Bonaparte airport (LFKJ)
Time Latitude Longitude Altitude Speed Heading
2026-05-01 12:20 43.65673 7.20313 17 ft 0 kts 315°
2026-05-01 12:47 43.65657 7.20334 19 ft 4 kts 315°
2026-05-01 12:47 43.65638 7.20361 17 ft 4 kts 315°
2026-05-01 12:48 43.65623 7.20382 18 ft 4 kts 312°
2026-05-01 12:48 43.65610 7.20411 17 ft 4 kts 271°
2026-05-01 12:48 43.65618 7.20438 19 ft 4 kts 225°
2026-05-01 12:48 43.65628 7.20452 20 ft 0 kts 225°
2026-05-01 12:54 43.65625 7.20447 19 ft 3 kts 225°
2026-05-01 12:54 43.65552 7.20346 17 ft 10 kts 225°
2026-05-01 12:54 43.65497 7.20271 17 ft 12 kts 224°
2026-05-01 12:55 43.65381 7.20176 17 ft 8 kts 165°
2026-05-01 12:55 43.65339 7.20207 17 ft 5 kts 140°
2026-05-01 12:55 43.65313 7.20240 17 ft 5 kts 136°
2026-05-01 12:56 43.65294 7.20266 17 ft 3 kts 136°
2026-05-01 12:56 43.65280 7.20285 17 ft 3 kts 136°
2026-05-01 12:56 43.65266 7.20304 17 ft 3 kts 133°
2026-05-01 12:56 43.65249 7.20330 17 ft 5 kts 135°
2026-05-01 12:57 43.65225 7.20361 17 ft 4 kts 136°
2026-05-01 12:57 43.65067 7.20459 18 ft 17 kts 210°
2026-05-01 12:57 43.64984 7.20350 18 ft 16 kts 224°
2026-05-01 12:58 43.64904 7.20246 18 ft 16 kts 223°
2026-05-01 12:58 43.64827 7.20138 18 ft 16 kts 216°
2026-05-01 12:58 43.64751 7.20161 18 ft 7 kts 136°
2026-05-01 12:59 43.64669 7.20281 20 ft 11 kts 115°
2026-05-01 12:59 43.64680 7.20297 20 ft 5 kts 10°
2026-05-01 12:59 43.64725 7.20322 21 ft 0 kts 47°
2026-05-01 13:07 43.55666 7.33139 8623 ft 181 kts 185°
2026-05-01 13:07 43.54440 7.32970 9258 ft 180 kts 181°
2026-05-01 13:07 43.53161 7.32866 9774 ft 186 kts 178°
2026-05-01 13:08 43.51867 7.32831 10387 ft 185 kts 176°
2026-05-01 13:08 43.50574 7.32792 10929 ft 187 kts 180°
2026-05-01 13:08 43.49260 7.32616 11417 ft 193 kts 183°
2026-05-01 13:08 43.47929 7.32381 12028 ft 190 kts 185°
2026-05-01 13:09 43.46606 7.32131 12584 ft 192 kts 185°
2026-05-01 13:09 43.45278 7.31890 13102 ft 197 kts 184°
2026-05-01 13:09 43.43886 7.31639 13606 ft 200 kts 185°
2026-05-01 13:09 43.42533 7.31416 14205 ft 199 kts 183°
2026-05-01 13:10 43.41072 7.31186 14290 ft 224 kts 185°
2026-05-01 13:10 43.39437 7.30923 14317 ft 248 kts 185°
2026-05-01 13:10 43.37654 7.30621 14319 ft 268 kts 185°
2026-05-01 13:10 43.35769 7.30312 14313 ft 280 kts 184°
2026-05-01 13:11 43.33820 7.30006 14310 ft 277 kts 184°
2026-05-01 13:11 43.31910 7.29693 14308 ft 275 kts 184°
2026-05-01 13:11 43.30016 7.29498 14302 ft 269 kts 173°
2026-05-01 13:11 43.28290 7.30264 14309 ft 257 kts 146°
2026-05-01 13:12 43.26811 7.31629 14304 ft 255 kts 137°
2026-05-01 13:12 43.25548 7.33307 14305 ft 252 kts 128°
2026-05-01 13:12 43.24445 7.35166 14307 ft 251 kts 124°
2026-05-01 13:12 43.23400 7.37077 14307 ft 250 kts 123°
2026-05-01 13:13 43.22352 7.38984 14305 ft 251 kts 123°
2026-05-01 13:13 43.21270 7.40866 14304 ft 252 kts 126°
2026-05-01 13:13 43.20181 7.42739 14303 ft 251 kts 125°
2026-05-01 13:13 43.19073 7.44584 14303 ft 250 kts 125°
2026-05-01 13:14 43.17972 7.46428 14303 ft 250 kts 127°
2026-05-01 13:14 43.16850 7.48258 14303 ft 250 kts 125°
2026-05-01 13:14 43.15756 7.50116 14304 ft 250 kts 124°
2026-05-01 13:14 43.14686 7.51990 14304 ft 250 kts 126°
2026-05-01 13:15 43.13597 7.53845 14302 ft 250 kts 126°
2026-05-01 13:15 43.12518 7.55712 14301 ft 250 kts 125°
2026-05-01 13:15 43.11427 7.57574 14301 ft 250 kts 126°
2026-05-01 13:15 43.10441 7.59506 14304 ft 243 kts 108°
2026-05-01 13:16 43.10025 7.61705 14303 ft 238 kts 95°
2026-05-01 13:16 43.09793 7.63916 14302 ft 238 kts 93°
2026-05-01 13:16 43.09589 7.66190 14301 ft 239 kts 94°
2026-05-01 13:17 43.08817 7.72925 14299 ft 241 kts 95°
2026-05-01 13:17 43.08532 7.75181 14298 ft 241 kts 95°
2026-05-01 13:18 43.07505 7.79497 14309 ft 248 kts 127°
2026-05-01 13:18 43.06137 7.80986 14298 ft 254 kts 143°
2026-05-01 13:18 43.04595 7.82188 14296 ft 257 kts 149°
2026-05-01 13:18 43.02998 7.83299 14296 ft 258 kts 148°
2026-05-01 13:19 43.01394 7.84410 14296 ft 258 kts 148°
2026-05-01 13:19 42.99813 7.85569 14292 ft 258 kts 147°
2026-05-01 13:19 42.96665 7.87955 14294 ft 259 kts 145°
2026-05-01 13:20 42.95093 7.89160 14291 ft 260 kts 145°
2026-05-01 13:20 42.93513 7.90366 14290 ft 260 kts 145°
2026-05-01 13:20 42.91926 7.91573 14289 ft 261 kts 145°
2026-05-01 13:21 42.88767 7.93972 14288 ft 262 kts 146°
2026-05-01 13:21 42.87693 7.94793 14288 ft 262 kts 146°
2026-05-01 13:21 42.85584 7.96392 14286 ft 262 kts 147°
2026-05-01 13:21 42.83998 7.97609 14294 ft 262 kts 145°
2026-05-01 13:22 42.82927 7.98431 14292 ft 262 kts 145°
2026-05-01 13:22 42.81338 7.99653 14284 ft 262 kts 146°
2026-05-01 13:22 42.79748 8.00872 14283 ft 262 kts 145°
2026-05-01 13:22 42.78162 8.02102 14282 ft 262 kts 145°
2026-05-01 13:23 42.76567 8.03318 14284 ft 263 kts 145°
2026-05-01 13:23 42.74983 8.04495 14276 ft 263 kts 146°
2026-05-01 13:23 42.73379 8.05693 14271 ft 263 kts 144°
2026-05-01 13:23 42.71765 8.06891 14269 ft 264 kts 144°
2026-05-01 13:24 42.70170 8.08117 14266 ft 263 kts 146°
2026-05-01 13:24 42.68583 8.09351 14265 ft 263 kts 145°
2026-05-01 13:24 42.66988 8.10580 14265 ft 263 kts 146°
2026-05-01 13:25 42.63785 8.12997 14268 ft 264 kts 145°
2026-05-01 13:25 42.62175 8.14191 14268 ft 264 kts 144°
2026-05-01 13:25 42.60566 8.15400 14268 ft 264 kts 145°
2026-05-01 13:25 42.58969 8.16626 14268 ft 263 kts 146°
2026-05-01 13:26 42.57375 8.17847 14265 ft 264 kts 146°
2026-05-01 13:26 42.55770 8.19063 14257 ft 263 kts 146°
2026-05-01 13:26 42.54165 8.20257 14243 ft 264 kts 144°
2026-05-01 13:26 42.52546 8.21437 14243 ft 264 kts 144°
2026-05-01 13:27 42.50937 8.22642 14243 ft 264 kts 144°
2026-05-01 13:27 42.49323 8.23846 14243 ft 264 kts 143°
2026-05-01 13:27 42.46136 8.26296 14238 ft 263 kts 145°
2026-05-01 13:28 42.42932 8.28714 14235 ft 264 kts 144°
2026-05-01 13:28 42.41319 8.29906 14227 ft 263 kts 144°
2026-05-01 13:29 42.38145 8.32229 13481 ft 258 kts 144°
2026-05-01 13:29 42.35023 8.34586 12726 ft 256 kts 144°
2026-05-01 13:30 42.28893 8.39274 11337 ft 251 kts 146°
2026-05-01 13:31 42.25829 8.41514 10650 ft 250 kts 148°
2026-05-01 13:31 42.21150 8.44645 9635 ft 250 kts 152°
2026-05-01 13:32 42.17935 8.46425 8920 ft 249 kts 157°
2026-05-01 13:33 42.13063 8.48641 7909 ft 243 kts 158°
2026-05-01 13:33 42.09802 8.50130 7243 ft 251 kts 157°
2026-05-01 13:34 42.06479 8.51686 6570 ft 254 kts 158°
2026-05-01 13:34 42.03149 8.53252 5856 ft 253 kts 158°
2026-05-01 13:35 41.99914 8.54970 5096 ft 240 kts 141°
2026-05-01 13:35 41.99000 8.56736 4732 ft 224 kts 104°
2026-05-01 13:35 41.99366 8.60345 4152 ft 180 kts 71°
2026-05-01 13:36 41.99758 8.61874 3848 ft 172 kts 69°
2026-05-01 13:36 42.00156 8.63365 3532 ft 169 kts 70°
2026-05-01 13:36 42.00878 8.66319 3120 ft 160 kts 83°
2026-05-01 13:37 42.00746 8.67751 3111 ft 155 kts 100°
2026-05-01 13:37 42.00539 8.69163 3071 ft 153 kts 100°
2026-05-01 13:37 42.00332 8.70538 3024 ft 146 kts 101°
2026-05-01 13:37 42.00141 8.71851 3033 ft 136 kts 101°
2026-05-01 13:38 41.99845 8.74015 3005 ft 112 kts 99°
2026-05-01 13:38 41.99713 8.75074 2888 ft 119 kts 99°
2026-05-01 13:38 41.99541 8.76186 2562 ft 120 kts 105°
2026-05-01 13:39 41.99261 8.77227 2444 ft 121 kts 120°
2026-05-01 13:39 41.98927 8.78357 2220 ft 136 kts 108°
2026-05-01 13:39 41.98689 8.79594 1961 ft 139 kts 107°
2026-05-01 13:39 41.98417 8.80812 1675 ft 130 kts 112°
2026-05-01 13:40 41.98014 8.81883 1434 ft 124 kts 133°
2026-05-01 13:40 41.97328 8.82491 1217 ft 118 kts 164°
2026-05-01 13:40 41.96518 8.82650 990 ft 118 kts 185°
2026-05-01 13:40 41.95737 8.82360 829 ft 118 kts 206°
2026-05-01 13:41 41.94982 8.81844 666 ft 125 kts 209°
2026-05-01 13:41 41.94219 8.81368 472 ft 115 kts 204°
2026-05-01 13:41 41.93512 8.80954 232 ft 106 kts 207°
2026-05-01 13:41 41.92835 8.80531 58 ft 107 kts 209°
2026-05-01 13:42 41.92230 8.80141 17 ft 68 kts 205°
2026-05-01 13:42 41.91963 8.79981 15 ft 27 kts 205°
2026-05-01 13:42 41.91841 8.79903 15 ft 17 kts 204°
2026-05-01 13:42 41.91672 8.79799 13 ft 31 kts 205°
2026-05-01 13:43 41.91504 8.79692 14 ft 23 kts 205°
2026-05-01 13:43 41.91389 8.79622 16 ft 14 kts 204°
2026-05-01 13:43 41.91266 8.79528 19 ft 26 kts 226°
2026-05-01 13:43 41.91270 8.79413 19 ft 10 kts 335°
2026-05-01 13:44 41.91335 8.79373 23 ft 9 kts 335°
2026-05-01 13:44 41.91387 8.79340 23 ft 9 kts 335°
2026-05-01 13:44 41.91452 8.79335 23 ft 11 kts
2026-05-01 13:44 41.91538 8.79384 24 ft 16 kts 27°
2026-05-01 13:45 41.91641 8.79449 24 ft 13 kts 22°
2026-05-01 13:45 41.91687 8.79476 24 ft 7 kts 24°
2026-05-01 13:45 41.91708 8.79487 23 ft 1 kts
2026-05-01 13:45 41.91721 8.79470 25 ft 3 kts 306°
2026-05-01 13:46 41.91734 8.79456 23 ft 0 kts 332°
2026-05-01 13:46 41.91756 8.79446 23 ft 6 kts 345°
2026-05-01 13:46 41.91770 8.79442 27 ft 0 kts 345°
2026-05-01 13:46 41.91772 8.79441 26 ft 0 kts 345°
2026-05-01 13:49 41.91902 8.79542 23 ft 0 kts 345°